Regional Weather Roundup
Issued by NWS

Home | Current Version | Previous Version | Graphics & Text | Print | Product List | Glossary Off
Versions: 1 2 3 4 5 6 7 8 9 10 11 12 13 14 15 16 17 18 19 20 21 22 23 24 25 26 27 28 29 30 31 32 33 34 35 36 37 38 39 40 41 42 43 44 45 46 47 48 49 50

806
ASUS45 KBOU 260310
RWRCO

WEATHER ROUNDUP FOR COLORADO
NATIONAL WEATHER SERVICE DENVER/BOULDER CO
800 PM MST SUN FEB 25 2018

NOTE: "FAIR" INDICATES FEW OR NO CLOUDS BELOW 12000 FEET WITH NO
SIGNIFICANT WEATHER AND/OR OBSTRUCTIONS TO VISIBILITY.

COZ001>005-013-030-031-260400-
...NORTHWEST COLORADO...

CITY           SKY/WX    TMP DP  RH WIND       PRES   REMARKS
CRAIG          FAIR      17   5  59 E3        30.07F
HAYDEN         FAIR      14   4  64 SE3       30.07F
MEEKER         MOCLDY    25   8  48 CALM      30.07S
RANGELY        MOCLDY    25  10  52 CALM      30.08S
RABBIT EARS PA FAIR       5   1  85 SW9       29.94S WCI  -9
STEAMBOAT SPGS FAIR      15   3  59 CALM      30.06S
WALDEN         FAIR      18   0  45 S10G16    30.01R WCI   6
$$

COZ006>008-011-260400-
...WEST CENTRAL VALLEYS...

CITY           SKY/WX    TMP DP  RH WIND       PRES   REMARKS
GRAND JUNCTION FAIR      31   9  39 N10       30.14R WCI  22
MONTROSE       FAIR      26  16  65 E6        30.15S WCI  19
EAGLE          FAIR      21  11  65 E8        30.11S WCI  11
RIFLE          FAIR      22  10  60 SE6       30.13R WCI  14
DELTA          FAIR      31  10  41 N9        30.15S WCI  23
NUCLA          FAIR      27  12  54 SE10      30.17F WCI  17
$$

COZ017>023-064>068-260400-
...SOUTHWEST COLORADO...

CITY           SKY/WX    TMP DP  RH WIND       PRES   REMARKS
DURANGO        FAIR      26   8  46 S3        30.15R
CORTEZ         FAIR      21   7  54 NE5       30.16S WCI  15
PAGOSA SPRINGS FAIR      19   4  52 CALM      30.16R
TELLURIDE      FAIR      17   4  58 E9        30.12S WCI   5
WOLF CREEK PAS   N/A      3   3 100 S23G29    30.11R WCI -19
$$

COZ009-010-012-014-032>034-037-058>063-260400-
...CENTRAL COLORADO...

CITY           SKY/WX    TMP DP  RH WIND       PRES   REMARKS
ASPEN          FAIR      12   2  64 S7        30.06F WCI   1
BUENA VISTA    FAIR      24  -3  31 W25G36    30.04R WCI   8
COPPER MTN     FAIR       9  -4  56 SW6       29.96F WCI  -1
BERTHOUD PASS  FAIR       3  -8  60 NW37      29.88S WCI -24
COTTONWOOD PAS FAIR      21   1  42 NW20G31   29.99S WCI   6
GUNNISON       FAIR      16   5  62 CALM      30.13R
GRANBY         FAIR      16  -1  45 NW3       30.03F
KREMMLING      FAIR      25   5  42 SW8       30.06S WCI  16
LEADVILLE      FAIR       6  -4  63 NE9       30.00S WCI  -8
MONARCH PASS   FAIR       3  -2  78 W35       30.09R WCI -23
SALIDA         FAIR      28  -4  24 W23G29    30.13R WCI  14
SUNLIGHT       FAIR       5   1  85 SW13G22     N/A  WCI -12
WILKERSON PASS FAIR      10  -9  40 W12G21    29.97R WCI  -4
$$

COZ069>075-260400-
...SAN LUIS VALLEY/SANGRE DE CRISTO MOUNTAINS...

CITY           SKY/WX    TMP DP  RH WIND       PRES   REMARKS
ALAMOSA        FAIR      17  -5  37 SE6       30.10R WCI   9
DEL NORTE      FAIR      20  -1  40 CALM      30.10R
LA VETA PASS   FAIR      16   0  48 S31G46    30.10R WCI  -5
SAGUACHE       FAIR      19   1  45 NW10      30.10R WCI   8
$$

COZ035-036-038>040-260400-
...NORTHERN COLORADO FRONT RANGE...

CITY           SKY/WX    TMP DP  RH WIND       PRES   REMARKS
DENVER INTL AP FAIR      33   3  28 W5        29.95R WCI  29
AURORA         MOCLDY    31   2  28 SW5       29.96R WCI  27
FRONT RANGE AP PTCLDY    34   3  27 W9        29.95S WCI  26
ERIE MUNI ARPT FAIR      32   6  33 NE3       30.00F
BOULDER MUN AP FAIR      32   3  29 NW7       29.93F WCI  26
CENTENNIAL     FAIR      31   7  36 SW9       29.95R WCI  23
BROOMFIELD     PTCLDY    32   5  32 CALM      29.94R
FORT COLLINS   FAIR      30   8  39 CALM      29.94S
LONGMONT       FAIR      35   6  29 NW13G21   29.96F WCI  26
$$

COZ041-046-047-076>085-087-088-260400-
...PIKES PEAK/PALMER DIVIDE AND SOUTHERN FOOTHILLS...

CITY           SKY/WX    TMP DP  RH WIND       PRES   REMARKS
COLO. SPRINGS  FAIR      26  -1  31 NE6       29.98R WCI  19
A. F. ACADEMY  FAIR      31  -4  22 SW3       29.96R
SCHRIEVER AFB  NOT AVBL
CHEYENNE MTN   FAIR      27  -1  28 CALM      29.92R
ELLICOTT         N/A    N/A N/A N/A SE8       29.96R
FALCON         FAIR      21  -5  32 MISG      29.98R
FORT CARSON    CLEAR     26   0  31 W6        29.98R WCI  20
LIMON          FAIR      10   2  69 N7        29.98R WCI  -1
MONUMENT HILL  FAIR      21   3  45 S7        29.97R WCI  13
CANON CITY     CLEAR     36   3  25 W12G17    30.00R
WALSENBURG     NOT AVBL
TRINIDAD       FAIR      31  -7  19 SW8       30.02R WCI  23
$$

COZ042>045-048>051-090-091-260400-
...NORTHEAST COLORADO...

CITY           SKY/WX    TMP DP  RH WIND       PRES   REMARKS
GREELEY ARPT   NOT AVBL
AKRON          FAIR      32   2  27 SE5       29.96S WCI  27
BURLINGTON     FAIR      23   9  55 S9        30.00R WCI  13
WRAY           FAIR      27  10  50 CALM      30.01R
YUMA           NOT AVBL
STERLING       FAIR      27   7  43 CALM      29.95S
HOLYOKE        FAIR      32  16  51 NW3       29.98R
FORT MORGAN    FAIR      31  -1  25 S5        29.97R WCI  26
$$

COZ086-089-092>099-260400-
...SOUTHEAST COLORADO...

CITY           SKY/WX    TMP DP  RH WIND       PRES   REMARKS
PUEBLO         FAIR      36   3  25 W13       29.99R
LA JUNTA       FAIR      35  -2  20 S8        30.00R WCI  29
LAMAR          FAIR      17  -5  37 SW10      30.00S WCI   5
SPRINGFIELD      N/A     18  -5  36 SW3       30.04R
$$




USA.gov is the U.S. government's official web portal to all federal, state and local government web resources and services.